COSMOS 2251 DEB

Satellite information

Favourite Embed

Satellite Type and Status

DEBRISIN ORBIT

Key statistics

Satellite COSMOS 2251 DEB at a glance.

Uptime

11869

Days in orbit

Revolutions

≈ 14.2

Per day

Orbit

LEO

Low Earth Orbit

Inclination

74.0

Latest

Satellite identification and parameters

Extended collection of information and parameters for COSMOS 2251 DEB.

Object identification

Identified? True

Debris? True

Object name: COSMOS 2251 DEB

International designator: 1993-036VD

Object number (NORAD): 34567

Object ID (CCSDS): 34567

Country: COMMONWEALTH OF INDEPENDENT STATES (CIS)

Current information (Y/N): Y

RCS size: SMALL

Orbital parameters

Period: 101.122 minutes

Inclination: 74.04 deg

SMA: 7189.935 km

Apoapsis: 865.311 km

Periapsis: 758.289 km

RAAN: 155.3147 deg

Eccentricy: 0.00744249

Argument of periapsis: 229.3966 deg

Mean anomaly: 193.8184 deg

Mean motion: 14.24017462 rev/day

Mean motion (dot): 0.0000072 rev/day2

B* drag term: 0.00031575618 1/REarth

Two-line elements (TLE)

Creation date: Dec. 14, 2025, 3:07 a.m.

Reference frame: TEME

Reference center: EARTH

Epoch: Dec. 13, 2025, 1:17 p.m. UTC

TLE line 0: 0 COSMOS 2251 DEB

TLE line 1: 1 34567U 93036VD 25347.55392345 .00000720 00000-0 31576-3 0 9997

TLE line 2: 2 34567 74.0400 155.3147 0074425 229.3966 193.8184 14.24017462871367

Live tracking on map

Real-time ground track for satellite COSMOS 2251 DEB.

In-orbit conjunctions

A list of the most updated potential collisions computed for object COSMOS 2251 DEB.

Target Orbit TCA Probability of collision Miss distance Type
COSMOS 2251 DEB LEO 2025-10-19 18:37:31 0.0002290351 25.0 (m) DEBRIS
FENGYUN 1C DEB SSO 2025-08-29 03:48:46 0.0003806088 326.0 (m) DEBRIS
CZ-4 DEB SSO 2025-08-11 08:13:43 0.0002218592 209.0 (m) DEBRIS
COSMOS 2360 LEO 2024-11-18 12:26:43 0.0001659443 329.0 (m) PAYLOAD

Associated space launch

Military communications satellite. Destroyed in a collision with Iridium 33.

COSMOS 2251 DEB was lifted into orbit during the mission ‘Kosmos-3M | Strela-2M 51’, on board a Kosmos-3M space rocket.

The launch took place on June 16, 1993, 4:17 a.m. from 132/1 (132L).

For more information about the launch, click the button.

Launch to space Kosmos-3M | Strela-2M 51
Kosmos-3M | Strela-2M 51

Agency: N/A

Status: Launch Successful

Launch date: June 16, 1993, 4:17 a.m. UTC

Rocket: Kosmos-3M

Launch pad: 132/1 (132L)

Location: Plesetsk Cosmodrome, Russian Federation

...

Latest news about this satellite

There are no fresh news available about this satellite. Check back as we update our databases every day.


Newsletter sign-up

Weekly statistics, charts and insights to help you stay on top of the space industry.